Regional Weather Roundup
Issued by NWS Glasgow, MT

Home | Current Version | Previous Version | Text Only | Print | Product List | Glossary On
Versions: 1 2 3 4 5 6 7 8 9 10 11 12 13 14 15 16 17 18 19 20 21 22 23 24 25 26 27 28 29 30 31 32 33 34 35 36 37 38 39 40 41 42 43 44 45 46 47 48 49 50
000
ASUS45 KGGW 021015
RWRGGW
HOURLY REGIONAL WEATHER ROUNDUP FOR NORTHEAST MONTANA
NATIONAL WEATHER SERVICE GLASGOW MONTANA
400 AM MDT THU JUL 02 2015

NOTE: "FAIR" INDICATES FEW OR NO CLOUDS BELOW 12,000 FEET WITH NO
SIGNIFICANT WEATHER AND/OR OBSTRUCTIONS TO VISISBILITY.

NORTHEAST MONTANA


CITY           SKY/WX    TMP DP  RH WIND       PRES   REMARKS
GLASGOW        CLEAR     57  52  83 NW8       30.05S
PLENTYWOOD       N/A     54  52  93 NW5         N/A
WOLF POINT     CLEAR     57  54  89 SW7       30.03S
JORDAN           N/A     57  53  86 W5        30.08S
WINNETT          N/A     53  50  89 SW2         N/A
SIDNEY         CLEAR     59  54  82 CALM      30.02R
GLENDIVE       CLEAR     55  54  94 W6        30.05S
MALTA            N/A     58  56  93 SW3         N/A
SCOBEY           N/A     54  50  86 CALM      30.02S FOG

FORT PECK REPORTS


CITY           SKY/WX    TMP DP  RH WIND       PRES   REMARKS
FORT PECK        N/A     59  51  75 W6          N/A
THE PINES        N/A     63  53  70 N5          N/A

SOUTHEAST MONTANA


CITY           SKY/WX    TMP DP  RH WIND       PRES   REMARKS
BILLINGS       PTCLDY    64  53  67 NW8       30.15S
MILES CITY     CLEAR     61  56  83 CALM      30.07R
BAKER          PTCLDY    58  56  93 CALM      30.07S
LIVINGSTON     PTCLDY    62  52  69 E5        30.20R

CENTRAL MONTANA


CITY           SKY/WX    TMP DP  RH WIND       PRES   REMARKS
HAVRE          CLEAR     53  52  96 SW6       30.13R
LEWISTOWN      CLEAR     57  52  83 SW5       30.20S
GREAT FALLS    CLEAR     56  50  80 SW6       30.19R
CUT BANK       CLEAR     52  50  93 NW7       30.21S
HELENA         PTCLDY    67  51  56 SW8       30.18S
BUTTE          CLEAR     53  46  77 SE5       30.26R
BOZEMAN        CLEAR     56  51  84 S3        30.19R

WESTERN MONTANA


CITY           SKY/WX    TMP DP  RH WIND       PRES   REMARKS
MISSOULA       CLEAR     72  51  47 SE13      30.10R
KALISPELL      NOT AVBL

NORTH DAKOTA


CITY           SKY/WX    TMP DP  RH WIND       PRES   REMARKS
WILLISTON      CLEAR     58  54  86 W9        29.99S
DICKINSON      PTCLDY    59  57  93 NW8       30.00S FOG
MINOT          PTCLDY    61  59  93 CALM      29.93S FOG
BISMARCK       TSTM      64  62  93 SW8       29.97R FOG

SOUTHERN SASKATCHEWAN


CITY           SKY/WX    TMP DP  RH WIND       PRES   REMARKS
REGINA         PTCLDY    55  55 100 NW3       30.00S FOG
MOOSE JAW      PTCLDY    57  55  94 W6        30.01
ESTEVAN        FOG       55  55 100 NW6       29.97S VSB 1/2
SWIFT CURRENT  CLOUDY    61 N/A N/A NW12G18   30.05S VSB 1




USA.gov is the U.S. government's official web portal to all federal, state and local government web resources and services.